Location: Newark
(43.6583°N, 1.6617°E)
Time: 10:02:21
(UTC+00:00)

Courier 1B - Pass Details

Date: 28 August 2019
Orbit: 962 x 1209 km, 28.3° (Epoch: 21 October)

Event Time Altitude Azimuth Distance (km) Brightness Sun altitude
Rises 17:34:20 0° 247° (WSW) 3,869 11.9 10.3°
Reaches altitude 10° 17:37:51 10° 232° (SW) 2,866 10.8 9.6°
Maximum altitude 17:42:48 21° 186° (S) 2,111 9.4 8.8°
Drops below altitude 10° 17:47:35 10° 140° (SE) 2,749 9.5 7.9°
Sets 17:50:52 0° 125° (SE) 3,669 10.0 7.3°
